Regional Weather Roundup
Issued by NWS Goodland, KS

Home | Current Version | Previous Version | Graphics & Text | Print | Product List | Glossary On
Versions: 1 2 3 4 5 6 7 8 9 10 11 12 13 14 15 16 17 18 19 20 21 22 23 24 25 26 27 28 29 30 31 32 33 34 35 36 37 38 39 40 41 42 43 44 45 46 47 48 49 50
000
ASUS43 KGLD 290908
RWRGLD

GOODLAND FORECAST AREA HOURLY WEATHER ROUNDUP
NATIONAL WEATHER SERVICE GOODLAND KS
300 AM MDT SAT AUG 29 2015

...OFFICIAL OBSERVATIONS...

CITY           SKY/WX    TMP DP  RH WIND       PRES   REMARKS
GOODLAND KS    CLEAR     58  55  90 W7        30.17S
HILL CITY KS   CLEAR     59  57  93 NW5       30.08S
IMPERIAL NEB   CLEAR     60  57  89 W6        30.15S
MCCOOK NEB     CLEAR     57  56  96 W5        30.11S
AKRON CO       CLEAR     62  49  62 S8        30.22F
BURLINGTON CO  CLEAR     54  48  80 SW6       30.21F
LIMON CO       CLEAR     47  44  90 NW3       30.29S
$$

...UNOFFICIAL OBSERVATIONS...

CITY           SKY/WX    TMP DP  RH WIND       PRES   REMARKS
GOVE KS          N/A     58  32  37 MISG        N/A
LENORA KS        N/A     60  32  34 MISG        N/A
SHARON SPRINGS   N/A     56  52  88 W5          N/A
YUMA CO          N/A     53  47  79 CALM        N/A
$$


USA.gov is the U.S. government's official web portal to all federal, state and local government web resources and services.